This is the latest recevied weather packets stored in our database for station/object K4GDX. If no packets are shown the sender has not sent any weather packets the latest 10 day(s).
| Time | Temp. | Humidity | Pressure | Rain* | Wind** | Luminosity | Snow |
|---|---|---|---|---|---|---|---|
| 1788618209 | 29.44° C | 85% | 1013.8 hPa | 0 mm | - | 84 W/m² | - |
| 1788617899 | 30° C | 84% | 1013.9 hPa | 0 mm | - | 93 W/m² | - |
| 1788617599 | 30° C | 86% | 1013.9 hPa | 0 mm | - | 742 W/m² | - |
| 1788617298 | 29.44° C | 86% | 1014 hPa | 0 mm | - | 733 W/m² | - |
| 1788616999 | 29.44° C | 85% | 1014 hPa | 0 mm | - | 197 W/m² | - |
| 1788616699 | 29.44° C | 85% | 1013.9 hPa | 0 mm | - | 267 W/m² | - |
| 1788616397 | 29.44° C | 85% | 1014 hPa | 0 mm | - | 258 W/m² | - |
| 1788616094 | 29.44° C | 85% | 1013.9 hPa | 0 mm | - | 459 W/m² | - |
| 1788615793 | 29.44° C | 85% | 1013.8 hPa | 0 mm | - | 570 W/m² | - |
| 1788615488 | 29.44° C | 85% | 1013.8 hPa | 0 mm | - | 513 W/m² | - |
| 1788615188 | 29.44° C | 86% | 1013.7 hPa | 0 mm | - | 471 W/m² | - |
| 1788614887 | 29.44° C | 86% | 1013.7 hPa | 0 mm | - | 452 W/m² | - |
| 1788614589 | 28.89° C | 87% | 1013.7 hPa | 0 mm | - | 438 W/m² | - |
| 1788614286 | 28.33° C | 88% | 1013.8 hPa | 0 mm | - | 399 W/m² | - |
| 1788613987 | 28.33° C | 88% | 1013.8 hPa | 0 mm | - | 399 W/m² | - |
| 1788613683 | 27.78° C | 88% | 1013.9 hPa | 0 mm | - | 345 W/m² | - |
| 1788613383 | 27.78° C | 89% | 1013.8 hPa | 0 mm | - | 348 W/m² | - |
| 1788613074 | 27.22° C | 90% | 1013.8 hPa | 0 mm | - | 325 W/m² | - |
| 1788612773 | 27.22° C | 90% | 1013.8 hPa | 0 mm | - | 308 W/m² | - |
| 1788612475 | 26.67° C | 91% | 1013.7 hPa | 0 mm | - | 287 W/m² | - |
| 1788612173 | 26.67° C | 91% | 1013.7 hPa | 0 mm | - | 128 W/m² | - |
| 1788611873 | 26.67° C | 92% | 1013.7 hPa | 0 mm | - | 248 W/m² | - |
| 1788611574 | 26.11° C | 93% | 1013.6 hPa | 0 mm | - | 255 W/m² | - |
| 1788611274 | 26.11° C | 94% | 1013.6 hPa | 0 mm | - | 204 W/m² | - |
| 1788610966 | 25.56° C | 94% | 1013.5 hPa | 0 mm | - | 193 W/m² | - |
* Rain latest hour (hover to see other rain measurements)
** Current wind speed in m/s (hover to see current wind gust speed)